When you browse on this site, cookies collect data to enhance your experience and personalize the content and advertising you see.
Visit our Privacy Policy to learn more. By continuing to use the site, you agree to this use of cookies and data.
  • In Lithuania
  • List of Countries
  • For 7 days
  • Water Temperature
  • Satellite Maps
  • Weather Map
  • Weather Widgets
  • user-avatar
    Login

    Hourly Weather Porabu

    Today, 18 November, Sunday

    Time Temperature Precipitation Wind Pressure Humidity
    00:00 +27°C° 0 mm 1 mps 754 mmHg 93%
    01:00 +27°C° 0 mm 1 mps 754 mmHg 94%
    02:00 +27°C° 0.1 mm 1 mps 754 mmHg 94%
    03:00 +27°C° 0.1 mm 1 mps 754 mmHg 95%
    04:00 +27°C° 0.1 mm 1 mps 753 mmHg 95%
    05:00 +25°C° 0 mm 0 mps 754 mmHg 94%
    06:00 +25°C° 0 mm 0 mps 754 mmHg 93%
    07:00 +25°C° 0 mm 0 mps 754 mmHg 92%
    08:00 +27°C° 0.3 mm 0 mps 754 mmHg 85%
    09:00 +29°C° 0.3 mm 0 mps 755 mmHg 78%
    10:00 +31°C° 0.3 mm 0 mps 755 mmHg 71%
    11:00 +33°C° 1.7 mm 1 mps 755 mmHg 71%
    12:00 +33°C° 1.7 mm 1 mps 754 mmHg 71%
    13:00 +32°C° 1.7 mm 1 mps 754 mmHg 71%
    14:00 +32°C° 0.8 mm 1 mps 753 mmHg 73%
    15:00 +31°C° 0.8 mm 1 mps 753 mmHg 75%
    16:00 +31°C° 0.8 mm 1 mps 752 mmHg 77%
    17:00 +30°C° 0.2 mm 1 mps 753 mmHg 81%
    18:00 +29°C° 0.2 mm 1 mps 753 mmHg 84%
    19:00 +28°C° 0.2 mm 1 mps 753 mmHg 88%
    20:00 +28°C° 0.6 mm 1 mps 754 mmHg 88%
    21:00 +26°C° 0.6 mm 0 mps 754 mmHg 89%
    22:00 +25°C° 0.6 mm 0 mps 755 mmHg 89%
    23:00 +25°C° 0.1 mm 0 mps 755 mmHg 89%

    Tomorrow, 19 November, Monday

    Time Temperature Precipitation Wind Pressure Humidity
    00:00 +25°C° 0.1 mm 0 mps 755 mmHg 90%
    01:00 +25°C° 0.1 mm 0 mps 755 mmHg 90%
    02:00 +25°C° 0.4 mm 0 mps 754 mmHg 90%
    03:00 +26°C° 0.4 mm 1 mps 754 mmHg 91%
    04:00 +26°C° 0.4 mm 1 mps 754 mmHg 91%
    05:00 +27°C° 0 mm 1 mps 754 mmHg 90%
    06:00 +25°C° 0 mm 0 mps 754 mmHg 90%
    07:00 +25°C° 0 mm 0 mps 754 mmHg 89%
    08:00 +27°C° 0.1 mm 0 mps 755 mmHg 81%
    09:00 +29°C° 0.1 mm 0 mps 755 mmHg 74%
    10:00 +30°C° 0.1 mm 0 mps 756 mmHg 66%
    11:00 +33°C° 0.4 mm 1 mps 755 mmHg 66%
    12:00 +33°C° 0.4 mm 1 mps 755 mmHg 66%
    13:00 +34°C° 0.4 mm 2 mps 754 mmHg 65%
    14:00 +33°C° 1.8 mm 1 mps 754 mmHg 69%
    15:00 +32°C° 1.8 mm 1 mps 753 mmHg 72%
    16:00 +31°C° 1.8 mm 1 mps 752 mmHg 75%
    17:00 +30°C° 0.9 mm 1 mps 753 mmHg 79%
    18:00 +29°C° 0.9 mm 1 mps 753 mmHg 84%
    19:00 +28°C° 0.9 mm 1 mps 754 mmHg 88%
    20:00 +28°C° 0.1 mm 1 mps 755 mmHg 89%
    21:00 +25°C° 0.1 mm 0 mps 755 mmHg 90%
    22:00 +25°C° 0.1 mm 0 mps 756 mmHg 91%
    23:00 +25°C° 0.7 mm 0 mps 755 mmHg 91%

    Day after tomorrow, 20 November, Tuesday

    Time Temperature Precipitation Wind Pressure Humidity
    00:00 +25°C° 0.7 mm 0 mps 755 mmHg 92%
    01:00 +24°C° 0.7 mm 0 mps 755 mmHg 93%
    02:00 +24°C° 0.7 mm 0 mps 754 mmHg 93%
    03:00 +24°C° 0.7 mm 0 mps 754 mmHg 93%
    04:00 +24°C° 0.7 mm 0 mps 753 mmHg 93%
    05:00 +24°C° 0.2 mm 0 mps 754 mmHg 93%
    06:00 +24°C° 0.2 mm 0 mps 754 mmHg 92%
    07:00 +27°C° 0.2 mm 1 mps 755 mmHg 91%
    08:00 +26°C° 0.6 mm 0 mps 755 mmHg 85%
    09:00 +28°C° 0.6 mm 0 mps 756 mmHg 79%
    10:00 +29°C° 0.6 mm 0 mps 756 mmHg 73%
    11:00 +32°C° 1.1 mm 1 mps 755 mmHg 72%
    12:00 +32°C° 1.1 mm 1 mps 755 mmHg 71%
    13:00 +32°C° 1.1 mm 1 mps 754 mmHg 69%
    14:00 +32°C° 2.4 mm 1 mps 753 mmHg 73%
    15:00 +31°C° 2.4 mm 1 mps 753 mmHg 76%
    16:00 +30°C° 2.4 mm 1 mps 752 mmHg 80%
    17:00 +29°C° 2.1 mm 1 mps 753 mmHg 83%
    18:00 +28°C° 2.1 mm 1 mps 753 mmHg 86%
    19:00 +27°C° 2.1 mm 1 mps 754 mmHg 89%
    20:00 +27°C° 0.6 mm 1 mps 754 mmHg 90%
    21:00 +27°C° 0.6 mm 1 mps 755 mmHg 90%
    22:00 +26°C° 0.6 mm 1 mps 755 mmHg 91%
    23:00 +26°C° 0.6 mm 1 mps 755 mmHg 91%

    21 November, Wednesday

    Time Temperature Precipitation Wind Pressure Humidity
    00:00 +26°C° 0.6 mm 1 mps 755 mmHg 92%
    01:00 +26°C° 0.6 mm 1 mps 754 mmHg 93%
    02:00 +26°C° 0.1 mm 1 mps 754 mmHg 93%
    03:00 +25°C° 0.1 mm 1 mps 753 mmHg 93%
    04:00 +25°C° 0.1 mm 1 mps 753 mmHg 94%
    05:00 +26°C° 0.2 mm 1 mps 753 mmHg 93%
    06:00 +26°C° 0.2 mm 1 mps 754 mmHg 93%
    07:00 +26°C° 0.2 mm 1 mps 754 mmHg 92%
    08:00 +28°C° 0.7 mm 1 mps 755 mmHg 87%
    09:00 +29°C° 0.7 mm 1 mps 755 mmHg 81%
    10:00 +31°C° 0.7 mm 1 mps 755 mmHg 76%
    11:00 +31°C° 1.1 mm 1 mps 755 mmHg 75%
    12:00 +31°C° 1.1 mm 1 mps 754 mmHg 74%
    13:00 +32°C° 1.1 mm 1 mps 753 mmHg 73%
    14:00 +31°C° 1.1 mm 2 mps 753 mmHg 75%
    15:00 +31°C° 1.1 mm 2 mps 752 mmHg 77%
    16:00 +30°C° 1.1 mm 2 mps 752 mmHg 80%
    17:00 +29°C° 1.3 mm 2 mps 752 mmHg 84%
    18:00 +28°C° 1.3 mm 2 mps 753 mmHg 88%
    19:00 +27°C° 1.3 mm 1 mps 754 mmHg 92%
    20:00 +26°C° 0.3 mm 1 mps 754 mmHg 92%
    21:00 +26°C° 0.3 mm 1 mps 755 mmHg 93%
    22:00 +26°C° 0.3 mm 1 mps 755 mmHg 93%
    23:00 +26°C° 0 mm 1 mps 755 mmHg 93%

    22 November, Thursday

    Time Temperature Precipitation Wind Pressure Humidity
    00:00 +26°C° 0 mm 1 mps 754 mmHg 94%
    01:00 +25°C° 0 mm 1 mps 754 mmHg 94%
    02:00 +25°C° 0 mm 1 mps 754 mmHg 95%
    03:00 +25°C° 0 mm 1 mps 753 mmHg 95%
    04:00 +25°C° 0 mm 1 mps 753 mmHg 95%
    05:00 +25°C° 0 mm 1 mps 753 mmHg 94%
    06:00 +25°C° 0 mm 1 mps 754 mmHg 93%
    07:00 +26°C° 0 mm 1 mps 755 mmHg 93%
    08:00 +28°C° 0 mm 1 mps 755 mmHg 85%
    09:00 +30°C° 0 mm 1 mps 755 mmHg 77%
    10:00 +32°C° 0 mm 1 mps 756 mmHg 69%
    11:00 +32°C° 0.1 mm 1 mps 755 mmHg 67%
    12:00 +33°C° 0.1 mm 1 mps 754 mmHg 65%
    13:00 +33°C° 0.1 mm 1 mps 754 mmHg 63%
    14:00 +32°C° 0.5 mm 1 mps 753 mmHg 67%
    15:00 +32°C° 0.5 mm 2 mps 753 mmHg 71%
    16:00 +31°C° 0.5 mm 2 mps 752 mmHg 75%
    17:00 +30°C° 0.3 mm 1 mps 753 mmHg 79%
    18:00 +28°C° 0.3 mm 1 mps 754 mmHg 84%
    19:00 +27°C° 0.3 mm 1 mps 754 mmHg 89%
    20:00 +27°C° 0.1 mm 1 mps 755 mmHg 90%
    21:00 +25°C° 0.1 mm 0 mps 755 mmHg 91%
    22:00 +24°C° 0.1 mm 0 mps 756 mmHg 92%
    23:00 +24°C° 0 mm 0 mps 755 mmHg 93%

    23 November, Friday

    Time Temperature Precipitation Wind Pressure Humidity
    00:00 +24°C° 0 mm 0 mps 755 mmHg 93%
    01:00 +24°C° 0 mm 0 mps 755 mmHg 94%
    02:00 +23°C° 0 mm 0 mps 754 mmHg 94%
    03:00 +23°C° 0 mm 0 mps 754 mmHg 95%
    04:00 +25°C° 0 mm 1 mps 754 mmHg 95%
    05:00 +25°C° 0 mm 1 mps 754 mmHg 94%
    06:00 +26°C° 0 mm 1 mps 755 mmHg 93%
    07:00 +24°C° 0 mm 0 mps 755 mmHg 93%
    08:00 +26°C° 0 mm 0 mps 756 mmHg 85%
    09:00 +28°C° 0 mm 0 mps 756 mmHg 77%
    10:00 +30°C° 0 mm 0 mps 756 mmHg 70%
    11:00 +30°C° 0.1 mm 0 mps 755 mmHg 67%
    12:00 +33°C° 0.1 mm 1 mps 755 mmHg 64%
    13:00 +33°C° 0.1 mm 1 mps 754 mmHg 61%
    14:00 +34°C° 0.2 mm 2 mps 754 mmHg 65%
    15:00 +32°C° 0.2 mm 2 mps 753 mmHg 69%
    16:00 +31°C° 0.2 mm 2 mps 753 mmHg 73%
    17:00 +30°C° 0.1 mm 2 mps 753 mmHg 78%
    18:00 +29°C° 0.1 mm 1 mps 754 mmHg 84%
    19:00 +27°C° 0.1 mm 1 mps 754 mmHg 89%
    20:00 +27°C° 0 mm 1 mps 754 mmHg 90%
    21:00 +27°C° 0 mm 1 mps 755 mmHg 92%
    22:00 +27°C° 0 mm 1 mps 755 mmHg 93%
    23:00 +26°C° 0 mm 1 mps 755 mmHg 93%
    Show more